Regional Weather Roundup
Issued by NWS Goodland, KS

Home | Current Version | Previous Version | Graphics & Text | Print | Product List | Glossary On
Versions: 1 2 3 4 5 6 7 8 9 10 11 12 13 14 15 16 17 18 19 20 21 22 23 24 25 26 27 28 29 30 31 32 33 34 35 36 37 38 39 40 41 42 43 44 45 46 47 48 49 50
000
ASUS43 KGLD 101359
RWRGLD

GOODLAND FORECAST AREA HOURLY WEATHER ROUNDUP
NATIONAL WEATHER SERVICE GOODLAND KS
700 AM MST WED FEB 10 2016

...OFFICIAL OBSERVATIONS...

CITY           SKY/WX    TMP DP  RH WIND       PRES   REMARKS
GOODLAND KS    CLOUDY    35  19  52 W13       30.07S
HILL CITY KS   CLEAR     35  25  66 W12       30.01F
IMPERIAL NEB   CLOUDY    36  22  56 W16       30.01F
MCCOOK NEB     CLOUDY    29  23  78 W12       29.99F WCI  19
AKRON CO       CLOUDY    36  18  48 SW21      30.08F
BURLINGTON CO  CLOUDY    29  17  61 W13       30.10S WCI  19
LIMON CO       CLOUDY    23  13  65 NW8       30.17S
$$

...UNOFFICIAL OBSERVATIONS...

CITY           SKY/WX    TMP DP  RH WIND       PRES   REMARKS
COLBY KS       CLEAR     30  27  86 W14       30.05F WCI  20
GOVE KS          N/A     34  32  92 MISG        N/A
LENORA KS        N/A     38  32  79 MISG        N/A
NORTON KS      CLEAR     34  21  60 W13       29.97F
SHARON SPRINGS   N/A     32  25  76 SW9         N/A
KIT CARSON CO    N/A     23  18  80 MISG        N/A
YUMA CO          N/A     33  22  65 W14         N/A
$$



USA.gov is the U.S. government's official web portal to all federal, state and local government web resources and services.